Weather History for Ann Arbor, MI

Change the Weather History Date:

Monday, January 21, 2013

  Actual Average Record
Temperature  
Mean Temperature 10 °F -  
Max Temperature 18 °F 26 °F 37 °F (2006)
Min Temperature 3 °F 8 °F -13 °F (2014)
Degree Days  
Heating Degree Days 54    
Moisture  
Dew Point 7 °F    
Average Humidity 75    
Maximum Humidity 88    
Minimum Humidity 59    
Precipitation  
Precipitation 0.01 in - - ()
Sea Level Pressure  
Sea Level Pressure 30.01 in    
Wind  
Wind Speed 8 mph (WNW)    
Max Wind Speed 21 mph    
Max Gust Speed 28 mph    
Visibility 4 miles    
Events Fog , Snow    
Averages and records for this station are not official NWS values.
T = Trace of Precipitation, MM = Missing Value Source: NWS Daily Summary

Daily Weather History Graph

Daily Weather History Graph

Search for Another Location

Airport:

Trip Planner

Search our weather history database for the weather conditions in past years. The results will help you decide how hot, cold, wet, or windy it might be!

Date:

Astronomy

Jan. 21, 2013 Rise Set
Actual Time 7:57 AM EST 5:35 PM EST
Civil Twilight 7:27 AM EST 6:06 PM EST
Nautical Twilight 6:52 AM EST 6:40 PM EST
Astronomical Twilight 6:19 AM EST 7:13 PM EST
Moon 1:14 PM EST 3:25 AM EST
Length of Visible Light 10h 39m
Length of Day
9h 38m
Waxing Gibbous, 75% of the Moon is Illuminated
Jan 21
Waxing Gibbous
Jan 26
Full
Feb 3
Last Quarter
Feb 10
New
Feb 17
First Quarter

Hourly Weather History & Observations

Time (EST) Temp. Windchill Dew Point Humidity Pressure Visibility Wind Dir Wind Speed Gust Speed Precip Events Conditions
12:53 AM 16.0 °F 10.4 °F 6.1 °F 65% 30.10 in 10.0 mi NW 3.5 mph - N/A   Overcast
1:53 AM 17.1 °F 10.0 °F 5.0 °F 59% 30.08 in 10.0 mi WNW 4.6 mph - N/A   Overcast
2:53 AM 16.0 °F - 7.0 °F 68% 30.12 in 10.0 mi Calm Calm - N/A   Overcast
3:53 AM 16.0 °F - 8.1 °F 71% 30.09 in 10.0 mi Calm Calm - N/A   Overcast
4:15 AM 17.6 °F 9.3 °F 8.6 °F 68% 30.03 in 10.0 mi SW 5.8 mph - N/A   Overcast
4:53 AM 17.1 °F 10.0 °F 9.0 °F 71% 30.06 in 10.0 mi SW 4.6 mph - N/A   Overcast
5:08 AM 17.6 °F 9.3 °F 8.6 °F 68% 30.01 in 10.0 mi SW 5.8 mph - N/A   Overcast
5:53 AM 18.0 °F 6.9 °F 10.0 °F 71% 30.04 in 10.0 mi SW 9.2 mph - N/A   Overcast
6:19 AM 17.6 °F 7.3 °F 10.4 °F 73% 29.99 in 10.0 mi SW 8.1 mph - N/A   Overcast
6:53 AM 18.0 °F 6.1 °F 10.9 °F 74% 30.04 in 8.0 mi WSW 10.4 mph - 0.00 in Snow Light Snow
7:18 AM 17.6 °F 4.3 °F 10.4 °F 73% 29.98 in 6.0 mi WSW 12.7 mph - 0.00 in Snow Light Snow
7:53 AM 18.0 °F 5.4 °F 10.9 °F 74% 30.02 in 6.0 mi WSW 11.5 mph - 0.00 in Snow Light Snow
8:28 AM 17.6 °F 8.2 °F 12.2 °F 79% 29.97 in 4.0 mi WSW 6.9 mph - 0.00 in Snow Light Snow
8:33 AM 17.6 °F 5.7 °F 12.2 °F 79% 29.98 in 1.8 mi West 10.4 mph - 0.00 in Snow Light Snow
8:37 AM 17.6 °F 4.3 °F 12.2 °F 79% 29.97 in 0.8 mi WSW 12.7 mph - 0.00 in Snow Light Snow
8:53 AM 17.1 °F 2.5 °F 12.9 °F 84% 30.02 in 0.5 mi West 15.0 mph - 0.00 in Fog , Snow Light Snow
8:58 AM 17.6 °F 0.9 °F 12.2 °F 79% 29.98 in 0.8 mi West 20.7 mph 26.5 mph 0.00 in Snow Light Snow
9:21 AM 15.8 °F 5.1 °F 12.2 °F 86% 29.98 in 1.0 mi WNW 8.1 mph - 0.00 in Snow Light Snow
9:26 AM 15.8 °F 7.2 °F 12.2 °F 86% 29.97 in 2.0 mi WNW 5.8 mph - 0.00 in Snow Light Snow
9:34 AM 15.8 °F 5.1 °F 10.4 °F 79% 29.98 in 5.0 mi West 8.1 mph - 0.00 in Snow Light Snow
9:43 AM 15.8 °F 7.2 °F 12.2 °F 86% 29.98 in 1.8 mi WNW 5.8 mph - 0.00 in Snow Light Snow
9:49 AM 15.8 °F 7.2 °F 12.2 °F 86% 29.98 in 0.8 mi West 5.8 mph - 0.00 in Snow Light Snow
9:53 AM 16.0 °F 6.3 °F 12.0 °F 84% 30.02 in 0.8 mi West 6.9 mph - 0.00 in Snow Light Snow
9:59 AM 17.6 °F 8.2 °F 12.2 °F 79% 29.98 in 1.5 mi West 6.9 mph - 0.00 in Snow Light Snow
10:06 AM 15.8 °F 4.2 °F 10.4 °F 79% 29.98 in 0.8 mi West 9.2 mph - 0.00 in Snow Light Snow
10:16 AM 15.8 °F 6.1 °F 10.4 °F 79% 29.98 in 1.5 mi WNW 6.9 mph - 0.00 in Snow Light Snow
10:23 AM 17.6 °F 7.3 °F 12.2 °F 79% 29.98 in 3.0 mi West 8.1 mph - 0.00 in Snow Light Snow
10:30 AM 17.6 °F 6.4 °F 12.2 °F 79% 29.97 in 1.8 mi West 9.2 mph - 0.00 in Snow Light Snow
10:53 AM 16.0 °F 7.4 °F 12.9 °F 88% 30.02 in 0.2 mi NW 5.8 mph - 0.00 in Fog , Snow Snow
11:00 AM 15.8 °F 6.1 °F 12.2 °F 86% 29.97 in 0.5 mi NNW 6.9 mph - 0.00 in Fog , Snow Snow
11:16 AM 15.8 °F 4.2 °F 10.4 °F 79% 29.97 in 1.0 mi NW 9.2 mph - 0.01 in Snow Light Snow
11:35 AM 15.8 °F 4.2 °F 10.4 °F 79% 29.96 in 1.5 mi NW 9.2 mph - 0.01 in Snow Light Snow
11:43 AM 15.8 °F 6.1 °F 10.4 °F 79% 29.96 in 2.5 mi NNW 6.9 mph - 0.01 in Snow Light Snow
11:53 AM 15.1 °F 4.2 °F 9.0 °F 77% 30.00 in 4.0 mi NW 8.1 mph - 0.01 in Snow Light Snow
12:03 PM 15.8 °F 5.1 °F 8.6 °F 73% 29.95 in 1.8 mi WNW 8.1 mph - 0.00 in Snow Light Snow
12:08 PM 15.8 °F 4.2 °F 10.4 °F 79% 29.95 in 0.8 mi WNW 9.2 mph - 0.00 in Snow Light Snow
12:26 PM 15.8 °F 2.1 °F 10.4 °F 79% 29.95 in 0.5 mi NNW 12.7 mph - 0.00 in Fog , Snow Snow
12:39 PM 15.8 °F 3.4 °F 8.6 °F 73% 29.94 in 1.0 mi NW 10.4 mph - 0.00 in Snow Light Snow
12:44 PM 15.8 °F 4.2 °F 8.6 °F 73% 29.94 in 2.0 mi NW 9.2 mph - 0.00 in Snow Light Snow
12:51 PM 15.8 °F 3.4 °F 8.6 °F 73% 29.94 in 5.0 mi WNW 10.4 mph - 0.00 in   Haze
12:53 PM 16.0 °F 4.4 °F 9.0 °F 74% 29.99 in 6.0 mi WNW 9.2 mph - 0.00 in   Haze
1:09 PM 17.6 °F 5.0 °F 8.6 °F 68% 29.93 in 7.0 mi NW 11.5 mph 19.6 mph N/A   Overcast
1:29 PM 15.8 °F 2.7 °F 8.6 °F 73% 29.93 in 2.5 mi NNW 11.5 mph - 0.00 in Snow Light Snow
1:38 PM 15.8 °F 2.7 °F 8.6 °F 73% 29.93 in 1.5 mi NW 11.5 mph - 0.00 in Snow Light Snow
1:53 PM 15.1 °F 4.2 °F 8.1 °F 74% 29.98 in 1.5 mi NW 8.1 mph - 0.00 in Snow Light Snow
2:06 PM 14.0 °F -0.8 °F 8.6 °F 79% 29.94 in 0.8 mi NW 13.8 mph - 0.00 in Snow Light Snow
2:14 PM 14.0 °F 0.5 °F 6.8 °F 73% 29.94 in 1.5 mi NW 11.5 mph - 0.00 in Snow Light Snow
2:31 PM 14.0 °F 2.0 °F 8.6 °F 79% 29.95 in 0.8 mi NW 9.2 mph 19.6 mph 0.00 in Snow Light Snow
2:41 PM 15.8 °F 3.4 °F 8.6 °F 73% 29.95 in 1.8 mi WNW 10.4 mph - 0.00 in Snow Light Snow
2:43 PM 15.8 °F 2.7 °F 6.8 °F 68% 29.95 in 4.0 mi WNW 11.5 mph - 0.00 in   Haze
2:50 PM 14.0 °F 0.5 °F 6.8 °F 73% 29.95 in 1.8 mi NW 11.5 mph - 0.00 in Snow Light Snow
2:53 PM 14.0 °F -0.2 °F 7.0 °F 74% 30.00 in 1.0 mi NW 12.7 mph - 0.00 in Snow Light Snow
3:02 PM 14.0 °F 0.5 °F 8.6 °F 79% 29.96 in 0.8 mi NNW 11.5 mph - 0.00 in Snow Light Snow
3:10 PM 14.0 °F -0.8 °F 6.8 °F 73% 29.96 in 1.8 mi NW 13.8 mph 18.4 mph 0.00 in Snow Light Snow
3:12 PM 14.0 °F -0.2 °F 5.0 °F 67% 29.96 in 3.0 mi NW 12.7 mph 18.4 mph 0.00 in Snow Light Snow
3:37 PM 12.2 °F -3.1 °F 3.2 °F 67% 29.97 in 8.0 mi WNW 13.8 mph 19.6 mph 0.00 in   Overcast
3:53 PM 12.9 °F -2.8 °F 3.9 °F 67% 30.03 in 7.0 mi WNW 15.0 mph 25.3 mph 0.00 in   Overcast
4:53 PM 10.9 °F -7.0 °F 1.9 °F 67% 30.05 in 5.0 mi WNW 18.4 mph 27.6 mph 0.00 in Snow Light Snow
5:02 PM 10.4 °F -6.6 °F 3.2 °F 73% 30.00 in 1.5 mi WNW 16.1 mph 24.2 mph 0.00 in Snow Light Snow
5:12 PM 10.4 °F -7.2 °F 1.4 °F 67% 30.00 in 4.0 mi WNW 17.3 mph 25.3 mph 0.00 in Snow Light Snow
5:26 PM 10.4 °F -8.2 °F -0.4 °F 62% 30.01 in 10.0 mi West 19.6 mph 23.0 mph 0.00 in   Scattered Clouds
5:53 PM 10.0 °F -3.7 °F -0.0 °F 64% 30.06 in 10.0 mi NW 10.4 mph - 0.00 in   Mostly Cloudy
6:53 PM 8.1 °F -7.0 °F -2.9 °F 61% 30.08 in 10.0 mi WNW 11.5 mph 20.7 mph 0.00 in   Clear
7:53 PM 7.0 °F -6.6 °F -2.0 °F 67% 30.10 in 10.0 mi WNW 9.2 mph - N/A   Scattered Clouds
8:15 PM 6.8 °F -6.9 °F -0.4 °F 72% 30.05 in 8.0 mi WNW 9.2 mph - N/A   Mostly Cloudy
8:43 PM 6.8 °F -6.9 °F -0.4 °F 72% 30.05 in 6.0 mi WNW 9.2 mph - 0.00 in Snow Light Snow
8:53 PM 7.0 °F -5.7 °F 1.0 °F 77% 30.11 in 4.0 mi WNW 8.1 mph - 0.00 in Snow Light Snow
9:04 PM 6.8 °F -4.8 °F 1.4 °F 79% 30.06 in 2.5 mi WNW 6.9 mph - 0.00 in Snow Light Snow
9:15 PM 6.8 °F -4.8 °F 1.4 °F 79% 30.06 in 3.0 mi WNW 6.9 mph - 0.00 in Snow Light Snow
9:53 PM 5.0 °F -8.1 °F -2.0 °F 73% 30.12 in 9.0 mi WNW 8.1 mph - 0.00 in   Overcast
10:08 PM 5.0 °F -8.1 °F -0.4 °F 78% 30.07 in 4.0 mi WNW 8.1 mph - 0.00 in Snow Light Snow
10:53 PM 5.0 °F -8.1 °F -0.9 °F 76% 30.13 in 10.0 mi WNW 8.1 mph - 0.00 in   Overcast
11:25 PM 5.0 °F -6.9 °F -0.4 °F 78% 30.09 in 2.5 mi WNW 6.9 mph - 0.00 in Snow Light Snow
11:27 PM 5.0 °F -9.1 °F -0.4 °F 78% 30.09 in 3.0 mi WNW 9.2 mph - 0.00 in Snow Light Snow
11:44 PM 3.2 °F -10.3 °F -2.2 °F 78% 30.09 in 6.0 mi WNW 8.1 mph - 0.00 in   Haze
11:53 PM 3.9 °F -11.3 °F -2.0 °F 76% 30.14 in 9.0 mi WNW 10.4 mph - 0.00 in   Overcast